Date String (YYYY-MM-DD hh:mm:ss) UTC,Instrument flags,Ambient pressure (hPa),Sample flow (lpm),Bypass flow (lpm),Sample temperature (°C),Ambient temperature (°C),ASC tube jacket temperature (°C),LED temperature (°C),Box temperature (°C),Sample RH (%),Span deviation,Mass concentration (μg/m³),Mass concentration (μg/m³),Mass concentration (μg/m³)
DateTimeUTC,F1_M11,P_M11,Q1_M11,Q2_M11,T1_M11,T2_M11,T3_M11,T4_M11,T5_M11,U1_M11,ZSPAN_M11,X0_M11,X2_M11,X1_M11
2022-03-26 11:00:00,,0824.4,5.01,0.00,26.3,25.4,00.0,35.4,28.1,14.6,0000.0,0016.42,0005.74,0004.12
2022-03-26 11:01:00,,0824.4,5.00,0.00,26.3,25.3,00.0,35.4,28.0,14.7,0000.0,0016.76,0005.80,0004.14
2022-03-26 11:02:00,,0824.4,5.00,0.00,26.2,25.2,00.0,35.3,28.0,14.7,0000.0,0016.84,0005.86,0004.15
2022-03-26 11:03:00,,0824.4,5.01,0.00,26.2,25.2,00.0,35.3,27.9,14.7,0000.0,0017.01,0005.90,0004.16
2022-03-26 11:04:00,,0824.4,5.00,0.00,26.2,25.2,00.0,35.3,27.9,14.7,0000.0,0016.78,0005.89,0004.17
2022-03-26 11:05:00,,0824.4,5.00,0.00,26.2,25.2,00.0,35.3,27.9,14.7,0000.0,0016.96,0005.87,0004.18
2022-03-26 11:06:00,,0824.5,5.00,0.00,26.2,25.2,00.0,35.3,27.9,14.7,0000.0,0016.60,0005.85,0004.18
2022-03-26 11:07:00,,0824.4,5.01,0.00,26.2,25.1,00.0,35.3,27.9,14.7,0000.0,0016.38,0005.86,0004.19
2022-03-26 11:08:00,,0824.4,5.00,0.00,26.1,25.1,00.0,35.3,27.9,14.7,0000.0,0016.53,0005.84,0004.17
2022-03-26 11:09:00,,0824.4,4.99,0.00,26.1,25.1,00.0,35.2,27.9,14.8,0000.0,0015.74,0005.84,0004.18
2022-03-26 11:10:00,,0824.4,5.00,0.00,26.1,25.2,00.0,35.2,27.9,14.7,0000.0,0015.02,0005.72,0004.17
2022-03-26 11:11:00,,0824.3,5.00,0.00,26.1,25.2,00.0,35.2,27.9,14.8,0000.0,0014.60,0005.68,0004.17
2022-03-26 11:12:00,,0824.3,4.99,0.00,26.1,25.1,00.0,35.2,27.8,14.8,0000.0,0014.34,0005.70,0004.17
2022-03-26 11:13:00,,0824.3,5.00,0.00,26.0,25.1,00.0,35.2,27.8,14.8,0000.0,0015.37,0005.69,0004.17
2022-03-26 11:14:00,,0824.3,5.00,0.00,26.0,25.0,00.0,35.2,27.8,14.8,0000.0,0015.31,0005.65,0004.16
2022-03-26 11:15:00,,0824.3,5.00,0.00,26.0,25.0,00.0,35.2,27.8,14.8,0000.0,0015.10,0005.62,0004.14
2022-03-26 11:16:00,,0824.3,5.00,0.00,26.0,25.0,00.0,35.1,27.8,14.9,0000.0,0015.27,0005.62,0004.13
2022-03-26 11:17:00,,0824.3,5.00,0.00,26.0,25.0,00.0,35.1,27.8,14.9,0000.0,0015.71,0005.62,0004.13
2022-03-26 11:18:00,,0824.3,5.01,0.00,26.0,25.1,00.0,35.1,27.8,14.8,0000.0,0016.17,0005.59,0004.11
2022-03-26 11:19:00,,0824.3,5.00,0.00,26.0,25.1,00.0,35.1,27.8,14.8,0000.0,0015.78,0005.60,0004.13
2022-03-26 11:20:00,,0824.3,5.00,0.00,26.0,25.1,00.0,35.1,27.9,14.8,0000.0,0015.73,0005.60,0004.12
2022-03-26 11:21:00,,0824.3,5.00,0.00,26.1,25.1,00.0,35.1,27.9,14.8,0000.0,0015.95,0005.64,0004.10
2022-03-26 11:22:00,,0824.3,5.00,0.00,26.0,25.1,00.0,35.1,27.8,14.8,0000.0,0016.24,0005.65,0004.08
2022-03-26 11:23:00,,0824.3,5.01,0.00,26.0,25.0,00.0,35.1,27.8,14.8,0000.0,0017.07,0005.61,0004.06
2022-03-26 11:24:00,,0824.2,5.00,0.00,26.0,25.0,00.0,35.1,27.7,14.9,0000.0,0015.98,0005.57,0004.05
2022-03-26 11:25:00,,0824.2,5.00,0.00,26.0,25.0,00.0,35.0,27.7,15.0,0000.0,0015.93,0005.56,0004.03
2022-03-26 11:26:00,,0824.2,5.00,0.00,25.9,25.0,00.0,35.0,27.7,15.0,0000.0,0016.38,0005.57,0004.01
2022-03-26 11:27:00,,0824.2,4.99,0.00,25.9,24.9,00.0,35.0,27.6,14.9,0000.0,0015.67,0005.53,0003.98
2022-03-26 11:28:00,,0824.2,5.00,0.00,25.9,24.9,00.0,35.0,27.6,15.0,0000.0,0015.06,0005.50,0003.95
2022-03-26 11:29:00,,0824.2,5.00,0.00,25.8,24.8,00.0,35.0,27.6,15.0,0000.0,0014.29,0005.46,0003.93
2022-03-26 11:30:00,,0824.3,5.00,0.00,25.8,24.8,00.0,35.0,27.5,15.0,0000.0,0014.45,0005.43,0003.91
2022-03-26 11:31:00,,0824.2,5.00,0.00,25.8,24.8,00.0,34.9,27.5,15.0,0000.0,0015.69,0005.46,0003.88
2022-03-26 11:32:00,,0824.2,5.00,0.00,25.8,24.8,00.0,34.9,27.5,14.9,0000.0,0015.87,0005.47,0003.86
2022-03-26 11:33:00,,0824.2,5.00,0.00,25.8,24.8,00.0,34.9,27.5,14.9,0000.0,0015.94,0005.44,0003.84
2022-03-26 11:34:00,,0824.2,5.00,0.00,25.8,24.8,00.0,34.9,27.5,14.7,0000.0,0015.57,0005.44,0003.83
2022-03-26 11:35:00,,0824.1,5.01,0.00,25.7,24.8,00.0,34.9,27.5,14.4,0000.0,0015.84,0005.48,0003.80
2022-03-26 11:36:00,,0824.1,5.00,0.00,25.7,24.7,00.0,34.9,27.4,14.1,0000.0,0015.80,0005.50,0003.76
2022-03-26 11:37:00,,0824.1,5.01,0.00,25.6,24.7,00.0,34.8,27.3,14.2,0000.0,0015.47,0005.56,0003.71
2022-03-26 11:38:00,,0824.1,5.00,0.00,25.6,24.6,00.0,34.8,27.3,14.3,0000.0,0015.90,0005.59,0003.70
2022-03-26 11:39:00,,0824.0,5.00,0.00,25.5,24.5,00.0,34.8,27.2,14.3,0000.0,0016.14,0005.57,0003.68
2022-03-26 11:40:00,,0824.1,5.00,0.00,25.5,24.5,00.0,34.7,27.2,14.2,0000.0,0015.85,0005.54,0003.65
2022-03-26 11:41:00,,0824.1,5.00,0.00,25.5,24.5,00.0,34.7,27.1,13.8,0000.0,0015.91,0005.54,0003.61
2022-03-26 11:42:00,,0824.0,5.00,0.00,25.4,24.4,00.0,34.7,27.1,13.0,0000.0,0014.67,0005.49,0003.55
2022-03-26 11:43:00,,0824.1,5.01,0.00,25.4,24.4,00.0,34.7,27.0,12.9,0000.0,0014.55,0005.47,0003.50
2022-03-26 11:44:00,,0824.1,5.00,0.00,25.3,24.4,00.0,34.6,27.0,13.0,0000.0,0014.35,0005.45,0003.44
2022-03-26 11:45:00,,0824.1,5.00,0.00,25.3,24.3,00.0,34.6,27.0,13.4,0000.0,0014.18,0005.40,0003.39
2022-03-26 11:46:00,,0824.1,5.00,0.00,25.3,24.3,00.0,34.6,27.0,12.3,0000.0,0014.27,0005.35,0003.35
2022-03-26 11:47:00,,0824.1,4.99,0.00,25.3,24.3,00.0,34.5,27.0,12.4,0000.0,0015.18,0005.28,0003.32
2022-03-26 11:48:00,,0824.2,5.00,0.00,25.3,24.3,00.0,34.5,27.0,12.3,0000.0,0015.34,0005.14,0003.27
2022-03-26 11:49:00,,0824.2,5.01,0.00,25.3,24.3,00.0,34.5,27.0,12.4,0000.0,0015.10,0005.06,0003.23
2022-03-26 11:50:00,,0824.2,5.00,0.00,25.3,24.4,00.0,34.5,27.0,12.7,0000.0,0014.66,0005.03,0003.19
2022-03-26 11:51:00,,0824.2,5.00,0.00,25.3,24.4,00.0,34.5,27.0,12.8,0000.0,0014.70,0005.01,0003.14
2022-03-26 11:52:00,,0824.2,5.00,0.00,25.3,24.4,00.0,34.4,27.0,12.6,0000.0,0014.85,0004.93,0003.09
2022-03-26 11:53:00,,0824.2,5.01,0.00,25.3,24.4,00.0,34.4,27.0,12.7,0000.0,0015.65,0004.89,0003.07
2022-03-26 11:54:00,,0824.2,4.98,0.00,25.3,24.4,00.0,34.4,27.0,12.1,0000.0,0015.67,0004.85,0003.03
2022-03-26 11:55:00,,0824.1,5.00,0.00,25.3,24.4,00.0,34.4,27.0,12.4,0000.0,0015.40,0004.78,0002.98
2022-03-26 11:56:00,,0824.1,5.01,0.00,25.3,24.4,00.0,34.4,27.0,12.4,0000.0,0015.46,0004.78,0002.94
2022-03-26 11:57:00,,0824.1,5.00,0.00,25.3,24.5,00.0,34.4,27.1,12.3,0000.0,0015.06,0004.76,0002.91
2022-03-26 11:58:00,,0824.1,5.00,0.00,25.3,24.5,00.0,34.4,27.1,12.3,0000.0,0013.94,0004.76,0002.85
2022-03-26 11:59:00,,0824.1,5.01,0.00,25.3,24.5,00.0,34.4,27.1,11.8,0000.0,0013.84,0004.79,0002.84
